QPF
0.00 0.00 0.00 0.00 0.01 0.00 0.01 0.01 0.00 0.01 0.01 0.02 0.03 0.02 0.02 0.02 0.01 0.01 0.02 0.01 0.01 0.01 0.00 0.00 0.00 0.00 0.00 0.01 0.00 0.00 0.00 0.00 0.00 0.00 0.00 0.00 0.01 0.02 0.03 0.03 0.02 0.03 0.03 0.03
0.00 0.00 0.00 0.00 0.00 0.00 0.01 0.01 0.01 0.01 0.01 0.01 0.03 0.02 0.02 0.02 0.02 0.02 0.02 0.02 0.01 0.01 0.01 0.00 0.00 0.00 0.00 0.00 0.00 0.00 0.00 0.01 0.00 0.00 0.00 0.00 0.01 0.01 0.02 0.02 0.02 0.02 0.03 0.04
0.00 0.00 0.00 0.00 0.00 0.00 0.00 0.01 0.01 0.01 0.01 0.03 0.05 0.03 0.04 0.03 0.02 0.02 0.02 0.02 0.01 0.01 0.01 0.00 0.00 0.01 0.00 0.00 0.00 0.01 0.01 0.00 0.00 0.00 0.00 0.00 0.01 0.03 0.02 0.02 0.01 0.02 0.03 0.03
0.00 0.00 0.00 0.00 0.00 0.00 0.00 0.01 0.01 0.01 0.01 0.03 0.04 0.06 0.09 0.08 0.04 0.03 0.03 0.03 0.02 0.01 0.01 0.00 0.00 0.00 0.00 0.00 0.01 0.01 0.00 0.00 0.00 0.00 0.00 0.00 0.00 0.01 0.01 0.01 0.01 0.01 0.02 0.03
0.00 0.00 0.00 0.00 0.01 0.00 0.00 0.00 0.01 0.01 0.01 0.01 0.02 0.03 0.09 0.07 0.03 0.04 0.05 0.06 0.04 0.02 0.01 0.00 0.01 0.01 0.01 0.00 0.00 0.00 0.00 0.00 0.00 0.00 0.00 0.00 0.01 0.01 0.01 0.01 0.01 0.02 0.02 0.02
0.00 0.00 0.00 0.01 0.01 0.01 0.01 0.01 0.01 0.01 0.01 0.01 0.02 0.03 0.01 0.02 0.03 0.03 0.04 0.03 0.02 0.01 0.01 0.01 0.01 0.02 0.01 0.00 0.01 0.00 0.00 0.00 0.00 0.00 0.00 0.00 0.01 0.02 0.01 0.01 0.01 0.01 0.01 0.01
0.00 0.00 0.00 0.00 0.01 0.00 0.01 0.01 0.02 0.02 0.02 0.01 0.01 0.04 0.02 0.01 0.02 0.02 0.02 0.02 0.03 0.02 0.02 0.01 0.01 0.01 0.01 0.01 0.01 0.00 0.00 0.00 0.01 0.01 0.01 0.01 0.02 0.03 0.02 0.02 0.02 0.01 0.01 0.00
0.00 0.00 0.00 0.00 0.00 0.00 0.00 0.01 0.02 0.02 0.02 0.01 0.02 0.04 0.02 0.01 0.01 0.01 0.01 0.02 0.03 0.03 0.03 0.03 0.02 0.01 0.02 0.02 0.01 0.00 0.01 0.01 0.01 0.02 0.02 0.03 0.02 0.02 0.03 0.02 0.02 0.01 0.01 0.01
0.01 0.00 0.00 0.00 0.00 0.00 0.00 0.01 0.00 0.01 0.01 0.01 0.03 0.03 0.03 0.02 0.02 0.02 0.02 0.03 0.04 0.05 0.04 0.04 0.02 0.02 0.01 0.01 0.01 0.01 0.02 0.02 0.02 0.02 0.02 0.02 0.02 0.03 0.03 0.02 0.02 0.01 0.01 0.01
0.01 0.00 0.00 0.00 0.00 0.00 0.00 0.00 0.00 0.00 0.02 0.02 0.03 0.02 0.03 0.02 0.03 0.05 0.05 0.05 0.05 0.06 0.07 0.06 0.05 0.03 0.02 0.02 0.02 0.02 0.03 0.03 0.03 0.02 0.02 0.02 0.02 0.02 0.02 0.02 0.03 0.04 0.03 0.02
0.00 0.00 0.00 0.00 0.00 0.00 0.00 0.00 0.00 0.00 0.01 0.02 0.02 0.02 0.01 0.02 0.03 0.06 0.09 0.09 0.08 0.11 0.12 0.07 0.07 0.06 0.04 0.03 0.03 0.04 0.04 0.05 0.06 0.06 0.05 0.04 0.04 0.03 0.03 0.03 0.03 0.03 0.03 0.02
0.00 0.00 0.00 0.00 0.00 0.00 0.00 0.00 0.00 0.01 0.01 0.00 0.02 0.03 0.01 0.01 0.05 0.09 0.08 0.10 0.17 0.19 0.14 0.09 0.08 0.08 0.08 0.07 0.06 0.07 0.08 0.08 0.06 0.06 0.06 0.05 0.09 0.12 0.11 0.09 0.05 0.03 0.02 0.02
0.00 0.00 0.00 0.00 0.00 0.00 0.00 0.00 0.00 0.00 0.01 0.01 0.01 0.03 0.02 0.02 0.03 0.05 0.07 0.09 0.14 0.15 0.11 0.08 0.08 0.09 0.12 0.14 0.11 0.09 0.09 0.09 0.10 0.08 0.05 0.04 0.06 0.08 0.06 0.05 0.03 0.02 0.02 0.02
0.00 0.00 0.00 0.00 0.00 0.00 0.00 0.00 0.00 0.00 0.00 0.01 0.01 0.02 0.02 0.02 0.04 0.06 0.09 0.08 0.07 0.09 0.10 0.12 0.12 0.10 0.11 0.14 0.16 0.13 0.11 0.09 0.07 0.05 0.03 0.03 0.03 0.04 0.03 0.03 0.03 0.03 0.03 0.02
0.01 0.01 0.00 0.00 0.00 0.00 0.00 0.00 0.00 0.00 0.00 0.00 0.00 0.01 0.02 0.04 0.05 0.10 0.15 0.11 0.09 0.09 0.12 0.16 0.16 0.14 0.11 0.11 0.11 0.13 0.14 0.11 0.07 0.05 0.04 0.04 0.05 0.05 0.05 0.04 0.03 0.03 0.02 0.02
0.00 0.00 0.00 0.00 0.00 0.00 0.00 0.00 0.00 0.00 0.00 0.01 0.02 0.02 0.02 0.03 0.04 0.06 0.08 0.08 0.11 0.11 0.08 0.09 0.10 0.13 0.12 0.09 0.09 0.08 0.07 0.08 0.07 0.05 0.04 0.05 0.05 0.06 0.06 0.06 0.05 0.04 0.04 0.04
0.00 0.00 0.00 0.00 0.00 0.00 0.00 0.00 0.00 0.00 0.01 0.02 0.04 0.05 0.04 0.03 0.03 0.05 0.05 0.05 0.06 0.08 0.08 0.09 0.08 0.11 0.17 0.13 0.08 0.06 0.05 0.05 0.06 0.06 0.06 0.07 0.08 0.08 0.07 0.06 0.06 0.05 0.05 0.05
0.00 0.00 0.00 0.00 0.00 0.00 0.01 0.01 0.01 0.01 0.02 0.02 0.02 0.03 0.05 0.05 0.05 0.06 0.06 0.05 0.05 0.07 0.09 0.10 0.10 0.08 0.16 0.18 0.15 0.10 0.09 0.09 0.08 0.07 0.07 0.08 0.09 0.10 0.07 0.05 0.04 0.04 0.04 0.04
0.00 0.00 0.00 0.00 0.00 0.00 0.01 0.01 0.01 0.01 0.03 0.03 0.03 0.04 0.05 0.05 0.04 0.05 0.05 0.06 0.07 0.07 0.09 0.07 0.06 0.06 0.11 0.15 0.16 0.17 0.15 0.15 0.14 0.13 0.12 0.11 0.12 0.14 0.12 0.09 0.06 0.05 0.05 0.06
0.00 0.00 0.01 0.01 0.01 0.01 0.01 0.01 0.01 0.02 0.05 0.05 0.03 0.05 0.05 0.05 0.05 0.03 0.03 0.05 0.08 0.08 0.08 0.07 0.06 0.06 0.08 0.11 0.12 0.16 0.21 0.19 0.21 0.21 0.20 0.18 0.18 0.18 0.16 0.13 0.10 0.06 0.06 0.06
0.01 0.01 0.01 0.02 0.02 0.02 0.01 0.01 0.01 0.03 0.04 0.04 0.04 0.05 0.06 0.06 0.05 0.05 0.04 0.05 0.08 0.10 0.09 0.10 0.09 0.07 0.07 0.09 0.09 0.10 0.14 0.16 0.16 0.17 0.18 0.18 0.19 0.22 0.24 0.24 0.19 0.12 0.09 0.09
0.01 0.01 0.01 0.02 0.02 0.02 0.01 0.01 0.02 0.03 0.03 0.04 0.03 0.03 0.04 0.04 0.04 0.07 0.06 0.06 0.06 0.06 0.06 0.07 0.09 0.08 0.06 0.06 0.06 0.07 0.08 0.09 0.10 0.11 0.13 0.12 0.12 0.15 0.21 0.25 0.26 0.24 0.16 0.09
0.04 0.03 0.02 0.02 0.03 0.02 0.02 0.03 0.06 0.05 0.03 0.05 0.04 0.04 0.04 0.05 0.04 0.07 0.05 0.04 0.05 0.03 0.03 0.04 0.05 0.06 0.05 0.04 0.04 0.04 0.06 0.07 0.07 0.09 0.10 0.11 0.13 0.14 0.16 0.18 0.19 0.17 0.18 0.17
0.05 0.05 0.03 0.02 0.02 0.03 0.02 0.03 0.06 0.06 0.04 0.03 0.03 0.03 0.03 0.03 0.02 0.03 0.02 0.02 0.02 0.02 0.03 0.03 0.04 0.04 0.05 0.05 0.04 0.03 0.04 0.05 0.06 0.07 0.09 0.11 0.09 0.10 0.14 0.16 0.16 0.16 0.16 0.15
0.03 0.06 0.07 0.05 0.02 0.02 0.02 0.03 0.04 0.04 0.07 0.04 0.03 0.02 0.02 0.01 0.01 0.01 0.01 0.01 0.01 0.01 0.02 0.05 0.05 0.05 0.04 0.05 0.05 0.04 0.04 0.04 0.05 0.05 0.05 0.07 0.08 0.08 0.10 0.14 0.15 0.11 0.12 0.16
0.04 0.04 0.05 0.05 0.04 0.04 0.04 0.03 0.03 0.03 0.06 0.06 0.04 0.03 0.02 0.01 0.01 0.01 0.01 0.01 0.01 0.01 0.02 0.03 0.05 0.07 0.05 0.04 0.05 0.05 0.04 0.03 0.03 0.04 0.04 0.04 0.05 0.06 0.05 0.07 0.11 0.11 0.08 0.08
MSLP
1006.29 1007.16 1007.84 1008.31 1008.61 1008.81 1008.98 1009.18 1009.44 1009.76 1010.09 1010.38 1010.58 1010.65 1010.58 1010.39 1010.15 1009.90 1009.71 1009.63 1009.65 1009.78 1009.97 1010.19 1010.41 1010.59 1010.74 1010.87 1011.02 1011.21 1011.46 1011.79 1012.17 1012.56 1012.95 1013.28 1013.53 1013.71 1013.82 1013.90 1013.98 1014.10 1014.28 1014.53
1006.98 1007.62 1008.05 1008.31 1008.46 1008.59 1008.76 1009.02 1009.38 1009.81 1010.22 1010.55 1010.73 1010.72 1010.54 1010.21 1009.83 1009.47 1009.22 1009.11 1009.16 1009.34 1009.61 1009.90 1010.16 1010.37 1010.51 1010.62 1010.73 1010.89 1011.13 1011.46 1011.86 1012.30 1012.73 1013.10 1013.39 1013.57 1013.66 1013.71 1013.74 1013.81 1013.94 1014.16
1007.35 1007.72 1007.90 1007.95 1007.97 1008.04 1008.25 1008.61 1009.11 1009.66 1010.18 1010.55 1010.71 1010.62 1010.30 1009.82 1009.29 1008.81 1008.47 1008.34 1008.41 1008.66 1009.01 1009.38 1009.72 1009.98 1010.15 1010.26 1010.36 1010.50 1010.74 1011.08 1011.51 1011.99 1012.48 1012.90 1013.23 1013.44 1013.55 1013.58 1013.58 1013.60 1013.69 1013.86
1007.43 1007.51 1007.44 1007.31 1007.23 1007.30 1007.57 1008.07 1008.72 1009.42 1010.03 1010.45 1010.58 1010.39 1009.93 1009.28 1008.58 1007.96 1007.53 1007.36 1007.45 1007.75 1008.19 1008.67 1009.10 1009.44 1009.66 1009.81 1009.92 1010.07 1010.31 1010.66 1011.12 1011.64 1012.18 1012.66 1013.05 1013.30 1013.43 1013.47 1013.47 1013.47 1013.52 1013.65
1007.33 1007.14 1006.84 1006.56 1006.42 1006.52 1006.89 1007.53 1008.34 1009.17 1009.88 1010.32 1010.40 1010.11 1009.49 1008.66 1007.78 1007.02 1006.49 1006.26 1006.36 1006.71 1007.24 1007.83 1008.37 1008.81 1009.12 1009.32 1009.47 1009.64 1009.89 1010.25 1010.72 1011.27 1011.84 1012.37 1012.81 1013.11 1013.28 1013.35 1013.36 1013.36 1013.39 1013.48
1007.21 1006.77 1006.30 1005.91 1005.74 1005.88 1006.36 1007.13 1008.07 1009.00 1009.77 1010.20 1010.22 1009.81 1009.03 1008.03 1006.99 1006.08 1005.45 1005.17 1005.26 1005.66 1006.28 1006.97 1007.63 1008.18 1008.58 1008.86 1009.06 1009.26 1009.52 1009.88 1010.34 1010.90 1011.48 1012.03 1012.50 1012.84 1013.06 1013.16 1013.20 1013.21 1013.24 1013.31
1007.21 1006.58 1005.97 1005.52 1005.34 1005.52 1006.07 1006.93 1007.94 1008.92 1009.69 1010.08 1010.01 1009.48 1008.56 1007.41 1006.23 1005.21 1004.50 1004.18 1004.28 1004.72 1005.40 1006.19 1006.96 1007.62 1008.12 1008.47 1008.73 1008.96 1009.22 1009.57 1010.02 1010.55 1011.11 1011.66 1012.13 1012.49 1012.73 1012.87 1012.94 1012.97 1013.02 1013.09
1007.45 1006.69 1005.99 1005.49 1005.30 1005.49 1006.06 1006.93 1007.93 1008.88 1009.58 1009.89 1009.72 1009.07 1008.05 1006.80 1005.54 1004.46 1003.70 1003.37 1003.48 1003.95 1004.69 1005.56 1006.41 1007.15 1007.74 1008.17 1008.48 1008.74 1009.01 1009.34 1009.75 1010.23 1010.75 1011.26 1011.70 1012.06 1012.30 1012.46 1012.55 1012.62 1012.69 1012.78
1007.92 1007.10 1006.35 1005.82 1005.60 1005.75 1006.26 1007.04 1007.94 1008.76 1009.33 1009.52 1009.24 1008.51 1007.43 1006.16 1004.89 1003.81 1003.07 1002.76 1002.89 1003.39 1004.16 1005.07 1005.97 1006.77 1007.42 1007.91 1008.28 1008.57 1008.84 1009.16 1009.53 1009.96 1010.41 1010.85 1011.25 1011.56 1011.80 1011.95 1012.06 1012.15 1012.25 1012.37
1008.55 1007.71 1006.96 1006.40 1006.12 1006.18 1006.54 1007.14 1007.83 1008.45 1008.83 1008.86 1008.48 1007.71 1006.64 1005.42 1004.22 1003.23 1002.57 1002.32 1002.48 1002.99 1003.77 1004.67 1005.58 1006.40 1007.08 1007.62 1008.02 1008.35 1008.65 1008.96 1009.31 1009.69 1010.09 1010.46 1010.79 1011.06 1011.26 1011.40 1011.51 1011.62 1011.74 1011.90
1009.15 1008.37 1007.64 1007.06 1006.69 1006.59 1006.74 1007.07 1007.47 1007.81 1007.96 1007.83 1007.37 1006.61 1005.62 1004.53 1003.50 1002.67 1002.14 1001.97 1002.17 1002.68 1003.42 1004.27 1005.14 1005.93 1006.61 1007.17 1007.62 1007.99 1008.34 1008.68 1009.04 1009.41 1009.77 1010.10 1010.38 1010.59 1010.75 1010.87 1010.97 1011.09 1011.24 1011.44
1009.56 1008.88 1008.20 1007.60 1007.13 1006.83 1006.70 1006.71 1006.78 1006.81 1006.71 1006.42 1005.91 1005.21 1004.37 1003.49 1002.68 1002.06 1001.70 1001.64 1001.88 1002.36 1003.03 1003.78 1004.55 1005.28 1005.92 1006.49 1006.98 1007.42 1007.84 1008.26 1008.68 1009.08 1009.45 1009.77 1010.02 1010.20 1010.33 1010.43 1010.52 1010.65 1010.82 1011.05
1009.66 1009.11 1008.50 1007.87 1007.29 1006.78 1006.36 1006.03 1005.75 1005.46 1005.13 1004.70 1004.18 1003.58 1002.93 1002.31 1001.78 1001.41 1001.24 1001.29 1001.54 1001.98 1002.53 1003.14 1003.78 1004.40 1004.98 1005.54 1006.08 1006.61 1007.14 1007.68 1008.20 1008.69 1009.12 1009.47 1009.74 1009.92 1010.04 1010.12 1010.22 1010.35 1010.54 1010.79
1009.42 1009.01 1008.47 1007.83 1007.14 1006.42 1005.72 1005.06 1004.45 1003.88 1003.33 1002.81 1002.31 1001.85 1001.42 1001.08 1000.84 1000.72 1000.74 1000.89 1001.15 1001.50 1001.91 1002.36 1002.83 1003.32 1003.83 1004.38 1004.96 1005.60 1006.27 1006.96 1007.63 1008.25 1008.79 1009.22 1009.53 1009.74 1009.88 1009.97 1010.07 1010.21 1010.42 1010.69
1008.92 1008.63 1008.15 1007.50 1006.70 1005.80 1004.86 1003.92 1003.02 1002.21 1001.51 1000.93 1000.48 1000.16 999.98 999.91 999.94 1000.06 1000.24 1000.47 1000.72 1000.97 1001.23 1001.51 1001.81 1002.16 1002.59 1003.12 1003.76 1004.50 1005.32 1006.17 1007.01 1007.79 1008.46 1008.99 1009.39 1009.65 1009.82 1009.94 1010.06 1010.22 1010.44 1010.72
1008.31 1008.09 1007.65 1006.97 1006.09 1005.04 1003.90 1002.73 1001.62 1000.64 999.83 999.23 998.85 998.69 998.72 998.90 999.17 999.49 999.81 1000.09 1000.31 1000.48 1000.59 1000.70 1000.84 1001.07 1001.43 1001.95 1002.63 1003.47 1004.43 1005.44 1006.43 1007.36 1008.16 1008.81 1009.29 1009.61 1009.83 1009.99 1010.13 1010.30 1010.53 1010.83
1007.76 1007.56 1007.11 1006.39 1005.43 1004.27 1002.98 1001.66 1000.40 999.31 998.45 997.86 997.57 997.55 997.76 998.14 998.61 999.09 999.51 999.83 1000.02 1000.10 1000.10 1000.07 1000.09 1000.23 1000.53 1001.04 1001.76 1002.68 1003.74 1004.87 1005.99 1007.03 1007.93 1008.66 1009.20 1009.59 1009.84 1010.03 1010.20 1010.39 1010.63 1010.93
1007.40 1007.15 1006.65 1005.87 1004.83 1003.58 1002.20 1000.79 999.47 998.33 997.46 996.92 996.70 996.80 997.16 997.69 998.30 998.89 999.38 999.73 999.91 999.94 999.87 999.76 999.70 999.78 1000.05 1000.56 1001.30 1002.26 1003.38 1004.56 1005.74 1006.84 1007.78 1008.55 1009.13 1009.54 1009.82 1010.03 1010.21 1010.42 1010.66 1010.96
1007.29 1006.93 1006.33 1005.47 1004.36 1003.05 1001.62 1000.18 998.85 997.73 996.89 996.40 996.26 996.45 996.91 997.54 998.24 998.90 999.45 999.82 1000.01 1000.03 999.94 999.81 999.74 999.80 1000.07 1000.58 1001.33 1002.29 1003.40 1004.58 1005.75 1006.82 1007.75 1008.49 1009.06 1009.46 1009.73 1009.94 1010.14 1010.34 1010.60 1010.90
1007.37 1006.86 1006.13 1005.17 1003.99 1002.65 1001.22 999.81 998.52 997.45 996.68 996.26 996.19 996.44 996.96 997.65 998.39 999.10 999.68 1000.09 1000.31 1000.37 1000.31 1000.22 1000.18 1000.28 1000.56 1001.07 1001.81 1002.73 1003.79 1004.90 1005.99 1006.98 1007.82 1008.49 1008.99 1009.35 1009.60 1009.79 1009.98 1010.19 1010.45 1010.75
1007.51 1006.83 1005.96 1004.91 1003.68 1002.34 1000.95 999.61 998.40 997.42 996.74 996.40 996.39 996.69 997.24 997.94 998.70 999.42 1000.04 1000.49 1000.77 1000.90 1000.92 1000.92 1000.96 1001.11 1001.43 1001.95 1002.65 1003.51 1004.48 1005.46 1006.42 1007.27 1007.98 1008.54 1008.95 1009.24 1009.45 1009.62 1009.79 1010.00 1010.26 1010.56
1007.57 1006.73 1005.75 1004.62 1003.38 1002.07 1000.75 999.51 998.43 997.58 997.00 996.74 996.79 997.12 997.67 998.37 999.12 999.85 1000.48 1000.98 1001.33 1001.55 1001.69 1001.80 1001.94 1002.18 1002.55 1003.07 1003.73 1004.50 1005.34 1006.18 1006.97 1007.66 1008.23 1008.66 1008.96 1009.17 1009.33 1009.47 1009.63 1009.84 1010.09 1010.39
1007.43 1006.47 1005.41 1004.25 1003.03 1001.79 1000.59 999.49 998.56 997.85 997.40 997.22 997.33 997.67 998.22 998.89 999.62 1000.33 1000.98 1001.52 1001.95 1002.27 1002.53 1002.76 1003.02 1003.34 1003.75 1004.27 1004.88 1005.56 1006.27 1006.95 1007.58 1008.10 1008.52 1008.82 1009.03 1009.17 1009.29 1009.40 1009.55 1009.75 1010.00 1010.30
1007.04 1006.02 1004.92 1003.78 1002.63 1001.51 1000.46 999.53 998.77 998.21 997.89 997.81 997.96 998.32 998.85 999.49 1000.18 1000.87 1001.52 1002.10 1002.59 1003.01 1003.38 1003.72 1004.08 1004.47 1004.92 1005.43 1005.99 1006.57 1007.15 1007.69 1008.16 1008.54 1008.83 1009.04 1009.17 1009.26 1009.34 1009.44 1009.58 1009.77 1010.01 1010.30
1006.42 1005.40 1004.34 1003.27 1002.23 1001.26 1000.38 999.64 999.06 998.67 998.48 998.49 998.69 999.06 999.56 1000.17 1000.82 1001.48 1002.12 1002.72 1003.26 1003.75 1004.21 1004.64 1005.07 1005.51 1005.98 1006.47 1006.97 1007.46 1007.93 1008.34 1008.69 1008.96 1009.15 1009.28 1009.36 1009.42 1009.48 1009.57 1009.70 1009.88 1010.11 1010.37
1005.68 1004.72 1003.75 1002.80 1001.91 1001.11 1000.42 999.87 999.47 999.24 999.17 999.27 999.51 999.89 1000.38 1000.94 1001.56 1002.19 1002.81 1003.41 1003.98 1004.51 1005.02 1005.50 1005.97 1006.44 1006.90 1007.35 1007.79 1008.20 1008.57 1008.89 1009.14 1009.32 1009.45 1009.53 1009.58 1009.63 1009.68 1009.77 1009.89 1010.05 1010.25 1010.47
Thickness
5838 5818 5807 5815 5822 5823 5819 5813 5809 5820 5837 5826 5816 5814 5820 5827 5824 5820 5818 5818 5817 5818 5821 5821 5819 5816 5811 5806 5801 5798 5794 5791 5788 5783 5779 5775 5772 5771 5770 5769 5768 5766 5764 5763
5812 5806 5825 5835 5835 5830 5820 5810 5810 5822 5836 5826 5814 5813 5823 5827 5827 5827 5825 5823 5821 5818 5818 5819 5818 5816 5812 5808 5804 5799 5796 5793 5790 5787 5783 5779 5776 5773 5772 5770 5769 5767 5765 5763
5801 5818 5837 5833 5826 5820 5815 5811 5813 5813 5824 5824 5811 5798 5809 5822 5828 5829 5830 5830 5827 5824 5820 5819 5818 5816 5813 5809 5806 5803 5799 5796 5793 5789 5785 5780 5776 5773 5770 5768 5767 5767 5766 5764
5809 5827 5830 5824 5821 5821 5806 5827 5826 5820 5804 5791 5800 5771 5796 5812 5816 5822 5825 5826 5827 5828 5826 5823 5821 5817 5815 5813 5810 5806 5801 5797 5794 5791 5785 5779 5773 5769 5769 5769 5768 5767 5766 5764
5805 5822 5820 5816 5824 5829 5821 5835 5827 5818 5800 5786 5791 5775 5783 5804 5803 5815 5823 5827 5829 5831 5829 5826 5825 5821 5818 5815 5811 5807 5802 5798 5795 5792 5788 5782 5777 5774 5772 5770 5767 5765 5765 5764
5813 5830 5829 5827 5836 5837 5834 5824 5813 5799 5782 5764 5782 5776 5773 5795 5810 5820 5827 5831 5832 5832 5830 5827 5827 5823 5818 5815 5811 5807 5801 5797 5795 5792 5788 5783 5778 5774 5770 5768 5765 5764 5763 5762
5796 5813 5828 5835 5820 5824 5820 5789 5761 5755 5746 5755 5784 5777 5781 5814 5828 5831 5831 5833 5834 5833 5829 5825 5822 5819 5816 5813 5811 5807 5802 5796 5794 5791 5787 5784 5780 5776 5771 5768 5765 5763 5761 5760
5768 5776 5811 5825 5818 5807 5808 5789 5756 5741 5739 5753 5776 5773 5795 5825 5834 5836 5835 5834 5833 5830 5830 5826 5824 5821 5817 5814 5810 5806 5801 5796 5793 5790 5786 5784 5780 5776 5772 5769 5767 5764 5762 5761
5764 5772 5813 5827 5832 5821 5802 5790 5790 5765 5758 5749 5758 5779 5800 5821 5823 5826 5827 5826 5824 5827 5827 5826 5823 5820 5817 5813 5810 5806 5800 5796 5793 5790 5786 5782 5779 5775 5772 5769 5767 5764 5763 5762
5779 5770 5795 5818 5826 5822 5815 5803 5775 5757 5740 5734 5750 5764 5773 5794 5803 5812 5815 5816 5819 5823 5822 5820 5819 5818 5815 5812 5809 5805 5800 5795 5792 5789 5785 5781 5777 5775 5771 5768 5765 5763 5761 5760
5783 5764 5776 5792 5794 5793 5798 5792 5774 5756 5752 5736 5731 5752 5797 5799 5803 5805 5808 5813 5814 5815 5816 5815 5814 5813 5810 5807 5804 5799 5796 5792 5788 5785 5782 5779 5776 5773 5769 5765 5763 5762 5759 5757
5777 5758 5752 5772 5798 5810 5801 5791 5774 5753 5746 5743 5737 5752 5805 5805 5806 5805 5805 5808 5810 5810 5810 5810 5809 5806 5803 5800 5798 5795 5792 5789 5786 5782 5779 5776 5773 5770 5766 5763 5761 5761 5758 5756
5773 5750 5735 5745 5765 5785 5785 5786 5779 5766 5750 5738 5733 5751 5795 5797 5796 5798 5800 5802 5801 5801 5801 5802 5800 5797 5795 5793 5792 5790 5787 5785 5783 5779 5775 5771 5769 5766 5764 5761 5759 5758 5755 5753
5773 5744 5735 5731 5743 5762 5767 5776 5778 5762 5742 5739 5745 5755 5773 5782 5783 5786 5790 5792 5791 5791 5791 5791 5790 5789 5787 5786 5785 5783 5781 5780 5777 5774 5771 5767 5766 5763 5761 5759 5756 5754 5751 5748
5759 5740 5745 5750 5762 5768 5767 5770 5773 5763 5758 5750 5754 5757 5767 5775 5778 5780 5781 5782 5781 5781 5781 5780 5780 5780 5780 5779 5777 5777 5776 5773 5772 5768 5765 5764 5762 5760 5758 5755 5752 5749 5747 5744
5743 5735 5739 5743 5757 5761 5759 5765 5769 5768 5765 5760 5759 5756 5773 5775 5775 5773 5774 5775 5772 5773 5772 5771 5771 5771 5771 5772 5771 5770 5769 5768 5766 5763 5760 5759 5757 5755 5752 5749 5746 5744 5741 5739
5727 5725 5719 5719 5741 5743 5733 5752 5759 5760 5764 5762 5751 5756 5765 5763 5765 5766 5767 5767 5765 5766 5766 5765 5764 5764 5765 5766 5765 5763 5763 5762 5759 5755 5754 5751 5750 5747 5745 5743 5739 5736 5734 5733
5721 5714 5704 5706 5718 5703 5732 5759 5763 5758 5758 5763 5763 5762 5763 5762 5763 5762 5762 5759 5759 5759 5758 5758 5758 5757 5757 5758 5757 5756 5755 5755 5752 5748 5747 5744 5742 5739 5737 5734 5731 5730 5728 5726
5724 5712 5697 5692 5693 5705 5730 5747 5750 5744 5740 5756 5755 5755 5756 5757 5752 5747 5753 5755 5755 5754 5752 5752 5753 5751 5749 5749 5748 5747 5745 5744 5741 5739 5738 5738 5736 5732 5729 5725 5723 5722 5720 5718
5716 5710 5696 5688 5687 5688 5716 5743 5754 5744 5723 5746 5750 5748 5746 5745 5729 5731 5745 5748 5748 5748 5746 5745 5744 5743 5741 5740 5739 5736 5734 5733 5731 5732 5731 5731 5728 5725 5722 5721 5717 5716 5714 5711
5692 5689 5684 5681 5681 5694 5722 5739 5743 5715 5715 5738 5743 5743 5740 5734 5733 5736 5740 5739 5738 5737 5736 5735 5734 5731 5731 5731 5730 5726 5725 5723 5723 5723 5722 5721 5721 5718 5716 5714 5711 5709 5707 5704
5676 5674 5674 5673 5672 5684 5720 5726 5719 5719 5731 5734 5736 5736 5733 5731 5731 5731 5730 5728 5728 5727 5726 5725 5722 5720 5721 5721 5720 5716 5714 5716 5714 5713 5712 5712 5711 5710 5709 5705 5702 5700 5698 5694
5675 5676 5673 5675 5678 5698 5712 5715 5719 5723 5723 5725 5726 5728 5727 5723 5721 5721 5719 5717 5717 5717 5716 5715 5713 5711 5710 5711 5710 5707 5706 5706 5704 5703 5702 5701 5700 5699 5698 5695 5692 5690 5688 5685
5672 5679 5674 5673 5683 5694 5702 5708 5713 5716 5716 5719 5721 5720 5718 5713 5712 5710 5708 5707 5706 5706 5705 5704 5702 5699 5698 5699 5699 5698 5698 5697 5695 5693 5692 5690 5688 5688 5687 5685 5684 5680 5677 5675
5664 5668 5664 5664 5676 5684 5692 5699 5704 5706 5709 5711 5711 5711 5709 5706 5703 5701 5697 5696 5696 5696 5695 5693 5691 5690 5689 5689 5688 5688 5688 5687 5684 5682 5681 5680 5679 5677 5675 5674 5671 5670 5670 5667
5660 5662 5660 5661 5672 5674 5679 5691 5697 5697 5698 5700 5699 5697 5697 5696 5693 5691 5688 5688 5688 5686 5685 5683 5681 5680 5679 5678 5677 5678 5678 5677 5674 5672 5671 5670 5670 5669 5667 5664 5661 5661 5660 5659